RH
91 93 87 85 81 81 80 86 89 71 82 82 79 69 55 68 89 100 99 94 62 79 83 49 96 96 78 60 57 57 38 38 37 35 28 26 23 26 28 21 23 24 31 45 36
91 92 87 82 84 76 82 84 83 88 88 79 79 75 64 49 80 90 97 91 66 87 99 86 98 99 71 58 50 38 37 29 26 28 27 28 22 26 27 26 24 28 35 36 38
91 85 91 87 82 88 82 77 79 86 83 79 82 79 78 76 89 87 75 73 73 50 96 94 92 91 71 62 46 37 36 29 39 33 32 29 29 31 25 27 22 23 36 66 50
84 80 84 70 72 72 73 66 92 82 74 69 81 82 91 89 80 71 65 73 73 77 88 94 93 88 67 62 49 46 34 35 42 46 43 35 32 31 29 23 30 36 38 42 80
82 84 80 77 73 80 95 90 89 80 80 74 71 78 83 87 78 89 91 98 99 98 84 84 81 82 65 57 55 47 44 42 40 47 47 45 38 31 34 35 36 38 33 38 40
88 86 77 79 77 76 80 76 70 78 75 69 72 77 92 83 74 86 94 75 91 99 87 83 72 70 59 59 54 46 44 42 40 46 46 43 40 43 34 34 34 36 32 32 36
87 84 85 79 80 76 84 77 68 67 68 74 75 79 95 72 85 88 84 86 93 91 82 88 73 67 62 57 57 54 51 40 45 41 36 42 40 44 33 30 30 29 30 34 35
96 94 90 90 79 83 81 72 60 70 79 69 80 85 80 64 74 85 75 91 79 90 86 94 81 63 56 56 55 50 44 53 33 40 44 41 28 32 38 36 34 32 31 33 33
91 94 93 97 77 88 87 65 68 68 66 77 84 86 61 76 77 86 87 81 82 95 93 89 82 61 62 57 59 48 42 41 47 43 34 39 30 26 32 38 33 33 32 34 35
96 90 83 87 78 76 77 79 67 68 72 82 76 83 64 76 72 92 92 85 97 90 97 98 85 73 56 53 52 51 46 46 39 45 48 47 36 37 37 39 37 33 31 30 33
95 86 84 82 87 72 80 69 78 84 92 66 65 73 80 96 85 94 76 78 96 88 93 80 96 81 60 45 40 39 46 40 43 44 44 42 44 39 36 35 33 31 29 29 30
88 89 84 91 83 76 78 88 80 84 66 70 77 79 77 90 99 98 90 99 75 80 76 88 95 52 47 50 50 46 43 43 54 46 45 45 45 36 33 34 35 34 32 31 33
83 85 84 84 70 69 86 92 94 91 71 67 83 79 72 98 83 88 85 95 74 85 86 95 78 54 53 56 55 53 48 53 48 48 44 45 40 37 33 30 34 32 31 30 31
73 87 88 85 81 90 92 90 95 81 81 64 93 91 95 98 74 84 87 91 94 96 86 95 76 59 58 56 47 64 56 54 54 54 49 46 33 38 28 34 32 36 38 40 43
61 73 80 77 88 91 87 87 79 85 87 76 96 98 98 84 77 75 80 94 85 93 94 96 89 85 65 56 49 66 55 52 51 53 55 50 47 34 28 36 35 36 42 47 53
51 59 63 70 87 86 87 88 84 87 90 90 86 94 90 75 72 75 75 81 88 74 73 93 94 86 90 92 61 50 51 52 53 56 71 53 48 28 28 32 36 36 41 47 53
50 59 63 67 75 85 88 97 91 84 76 89 96 95 74 76 67 64 84 78 92 96 100 96 83 86 87 96 76 52 61 85 79 86 60 54 54 29 30 32 37 41 44 49 56
46 52 70 78 79 87 84 86 83 91 99 82 96 80 93 87 75 90 96 71 62 80 100 99 97 82 83 76 75 73 62 68 59 53 43 56 42 30 29 31 34 41 48 51 56
58 51 67 86 89 90 92 94 96 96 98 100 90 90 100 76 80 92 78 68 58 61 76 96 96 56 53 50 52 62 74 49 62 61 59 36 37 33 31 33 35 41 47 51 57
58 50 74 85 76 81 90 98 100 97 93 82 84 67 77 77 85 92 65 58 59 53 49 59 92 62 57 52 51 53 47 69 78 65 49 34 32 25 38 37 33 39 46 49 61
61 60 71 78 72 83 100 100 96 83 87 70 67 69 66 71 71 62 62 58 51 52 46 51 59 80 59 64 61 58 61 59 50 51 34 21 23 25 33 31 35 37 44 50 68
70 91 68 75 88 85 86 85 80 76 83 68 55 59 58 60 60 57 57 54 53 46 50 54 60 80 75 57 54 52 53 46 60 67 66 52 27 31 27 32 37 40 46 57 74
86 70 66 78 95 87 78 82 79 72 64 54 54 52 52 54 60 56 55 59 54 48 49 50 67 85 84 66 61 67 59 52 57 70 80 44 30 34 35 34 35 43 48 65 76
84 89 76 82 95 77 81 81 71 76 62 54 53 49 50 54 53 60 60 61 59 57 54 47 58 62 60 72 69 86 68 57 76 85 54 45 37 36 33 33 38 43 55 74 74
89 93 93 94 78 76 75 73 71 67 64 58 51 50 49 55 58 60 63 61 60 63 55 51 89 72 61 62 78 71 69 67 82 64 76 41 44 30 31 36 40 47 73 77 68
98 98 97 85 82 72 73 72 73 74 77 58 54 60 54 52 48 58 58 56 55 56 53 56 92 81 78 63 68 78 62 64 62 57 58 53 54 34 37 40 47 58 77 73 67
91 98 99 84 74 69 70 67 69 74 80 72 60 58 60 64 68 56 55 50 50 54 57 58 75 77 74 66 66 73 62 60 59 57 55 66 46 37 40 46 55 70 80 71 69
Wind_Speed
23 23 22 21 22 22 21 18 20 21 18 17 16 17 15 27 25 12 23 17 20 8 10 25 21 16 13 13 9 9 9 16 22 20 14 11 12 7 6 9 7 5 3 3 5
25 22 23 22 21 20 19 19 20 18 18 18 15 14 16 17 26 29 22 24 19 16 10 17 23 19 13 13 11 14 14 20 10 11 12 14 14 12 8 10 9 7 3 7 6
23 21 21 22 20 20 19 19 18 16 16 16 14 14 12 13 16 22 17 28 23 23 17 13 20 19 15 13 15 16 16 9 8 11 8 14 12 9 10 10 10 8 2 1 5
24 22 22 22 20 19 17 17 15 14 14 14 14 12 11 6 8 14 18 22 23 21 20 19 24 21 14 13 19 10 18 10 6 7 7 12 10 8 11 5 7 8 1 2 2
24 23 21 20 19 16 15 14 14 13 12 11 11 13 9 9 21 7 18 14 24 26 29 27 31 25 18 19 15 15 5 10 8 8 7 7 9 9 11 9 7 8 9 5 3
25 24 21 20 19 17 15 14 13 11 9 8 9 9 9 14 13 22 11 8 17 31 30 28 26 23 17 14 15 14 8 12 13 8 5 7 8 6 8 11 14 14 15 13 12
27 25 23 20 18 16 13 13 11 9 8 8 10 9 12 21 10 13 23 9 11 31 32 28 18 24 11 9 14 4 13 13 9 11 9 7 14 13 19 18 16 14 13 13 14
27 26 24 23 18 14 13 12 9 9 12 8 9 9 10 10 20 8 25 15 13 27 27 24 21 23 10 7 13 14 7 10 10 18 6 8 14 4 7 13 16 17 18 17 20
31 30 25 21 16 16 11 9 8 13 12 8 7 7 8 7 21 12 17 16 15 26 26 22 25 22 9 14 10 14 10 18 5 10 13 17 8 9 11 6 9 10 11 13 15
31 28 21 16 12 10 6 8 9 6 3 6 6 5 11 9 18 11 17 14 17 27 19 20 15 11 14 15 15 19 15 13 14 7 9 10 14 5 8 8 13 15 16 15 15
33 27 21 12 7 6 4 4 1 1 3 4 3 5 5 2 14 10 17 15 19 26 10 25 6 18 24 19 3 10 16 9 8 5 6 11 10 11 14 16 18 20 20 18 17
31 29 19 3 2 2 4 2 2 2 3 4 9 11 9 9 6 15 12 10 18 21 11 8 13 15 16 13 7 14 14 10 6 5 5 4 8 13 13 14 11 13 15 13 10
29 26 21 8 4 3 5 5 4 3 2 2 0 4 5 2 3 13 6 3 20 14 17 5 7 15 18 16 13 9 12 11 4 6 2 5 6 5 4 6 4 3 2 3 5
31 23 16 7 5 7 8 9 1 2 1 5 2 3 6 8 4 11 11 5 4 9 6 1 3 18 19 18 16 12 5 8 7 5 3 3 3 3 9 9 9 11 11 11 10
28 21 19 12 5 6 4 7 2 3 4 2 2 4 5 2 17 7 1 4 10 11 6 4 6 15 20 20 15 6 9 8 5 3 2 4 4 7 10 8 7 9 9 8 8
19 18 13 14 13 9 6 5 2 3 7 6 4 5 3 4 6 8 6 9 14 9 14 7 6 4 2 7 6 15 10 8 4 1 3 3 4 7 9 10 7 7 7 6 7
11 13 12 11 7 8 8 7 1 6 3 6 5 4 7 4 11 8 4 4 3 5 4 5 4 6 5 9 3 8 12 4 3 4 2 2 4 3 9 10 8 5 6 5 7
11 9 10 11 8 8 11 2 10 4 4 2 2 4 4 6 7 8 3 5 8 8 4 2 4 2 3 2 9 10 3 2 4 4 3 2 5 3 9 9 4 3 2 3 5
9 6 8 11 12 8 3 6 3 2 2 1 3 4 3 7 5 4 2 4 3 3 3 4 4 2 3 4 6 4 4 2 4 2 1 3 3 4 5 9 6 3 3 5 5
8 1 10 12 8 6 1 5 1 3 2 4 2 2 4 5 3 2 1 2 3 0 2 3 6 3 4 1 11 1 8 2 0 4 4 4 3 3 14 13 3 5 6 7 5
5 1 12 11 8 6 3 4 1 3 4 2 2 3 6 4 4 2 2 3 2 2 3 5 3 3 2 1 7 4 3 2 2 1 2 1 3 0 15 12 2 7 7 8 8
5 1 10 7 3 3 2 2 2 2 4 2 2 6 5 3 3 2 3 1 2 3 3 1 4 4 2 2 2 1 2 4 2 4 0 3 3 3 7 5 5 8 7 6 6
9 3 5 5 3 3 1 1 3 3 2 1 2 1 1 3 3 3 3 3 1 1 5 6 4 5 5 3 1 4 4 2 5 2 5 3 4 3 5 3 6 8 9 6 7
5 1 3 5 3 1 2 2 3 2 3 2 2 2 4 3 3 4 4 3 0 2 7 3 2 1 2 3 3 4 8 9 4 3 4 4 0 6 4 5 8 9 7 8 7
5 2 2 2 3 2 1 1 1 2 3 5 2 1 3 3 3 4 2 4 3 2 3 1 3 2 1 3 2 1 5 11 7 4 5 2 6 5 10 8 10 11 6 6 6
4 4 6 4 6 4 3 2 2 1 2 0 2 1 1 2 1 7 6 4 3 3 2 2 3 2 1 1 4 5 8 10 14 14 13 12 17 13 5 6 9 6 5 4 6
6 3 3 4 3 3 1 1 3 3 2 1 5 4 3 1 1 1 1 5 5 7 5 3 5 2 1 0 3 7 15 16 9 9 13 10 8 4 9 8 7 4 2 4 5
Wind_Direction
320 319 314 311 309 303 297 291 289 278 281 269 273 275 297 255 248 240 223 223 221 172 193 192 187 186 182 189 188 189 220 221 215 221 216 187 202 199 200 220 202 203 260 256 274
325 320 321 313 305 309 301 292 286 286 280 270 267 275 279 288 264 252 234 231 227 181 185 183 188 178 181 194 187 202 220 221 227 211 211 185 203 181 181 193 208 200 242 282 248
320 320 320 315 315 308 300 297 293 285 277 273 256 256 282 297 276 254 238 231 219 201 209 192 191 182 183 188 187 208 227 205 203 198 172 182 188 185 199 199 204 199 195 336 256
319 317 318 314 311 308 307 300 298 291 280 268 259 246 263 288 228 223 237 217 220 203 197 191 193 189 188 197 189 210 224 221 173 167 150 175 178 195 218 231 170 158 104 15 231
322 319 319 315 313 306 305 303 297 292 280 264 265 247 249 242 229 216 155 170 203 196 195 190 191 197 195 198 193 215 197 201 204 171 156 155 187 219 233 222 233 246 261 238 236
322 322 318 312 308 303 301 306 302 294 285 275 261 241 236 247 230 231 199 139 197 189 195 191 197 189 205 197 198 201 198 207 214 195 183 198 216 215 231 241 241 243 248 248 249
328 324 318 313 301 298 300 300 298 295 293 269 252 244 234 236 231 233 223 231 189 189 191 192 188 185 172 183 201 143 205 228 202 211 227 218 238 232 244 245 245 240 246 248 248
325 320 319 311 303 296 295 292 290 287 284 271 254 237 250 257 217 178 197 237 209 194 191 188 186 184 182 171 166 190 197 198 213 210 204 196 250 162 218 224 242 248 247 251 255
333 325 316 306 306 302 281 287 293 292 274 252 244 218 257 248 209 225 192 208 187 183 188 182 173 182 156 164 159 186 203 213 179 207 207 211 253 240 224 237 249 248 248 249 257
339 334 328 308 284 304 285 314 301 308 258 203 214 212 241 216 191 205 180 169 168 170 182 193 188 179 175 180 194 189 196 205 210 171 206 213 236 241 221 256 269 270 266 261 260
342 340 329 305 283 277 298 345 317 209 187 220 214 247 67 172 200 176 166 173 157 166 177 192 211 186 187 194 313 170 190 189 206 142 208 230 244 251 258 263 262 265 268 268 266
355 358 351 341 195 238 333 7 262 291 282 272 263 266 275 295 175 172 172 170 173 176 157 166 209 204 182 179 161 175 179 188 123 156 222 199 254 252 259 265 279 274 266 270 275
3 9 25 73 86 57 27 335 264 226 275 354 88 290 255 291 147 170 160 133 154 163 183 222 180 183 179 181 184 184 187 168 157 149 120 282 241 171 103 88 84 53 172 102 85
9 6 19 35 54 42 35 14 94 200 220 41 42 256 242 225 118 160 152 88 95 121 145 317 208 175 183 182 176 171 157 142 133 183 216 304 175 115 135 107 83 83 86 87 77
11 16 36 62 77 54 73 93 126 310 77 38 234 295 347 95 130 173 132 351 95 129 182 201 131 187 184 187 188 122 142 117 111 110 304 180 238 122 161 130 90 75 78 77 57
16 21 32 61 69 78 91 124 251 265 37 353 55 11 10 139 95 146 100 64 111 97 93 57 99 46 83 41 139 135 114 77 72 99 233 159 253 163 172 149 105 82 71 68 41
4 16 9 23 53 45 345 317 261 47 320 6 7 344 100 82 109 107 35 92 115 124 65 89 56 90 103 78 16 141 151 135 177 197 245 124 209 52 145 147 94 62 51 44 26
337 346 1 358 348 336 337 263 52 337 10 343 315 97 63 34 86 76 329 100 62 73 77 85 112 35 297 127 151 154 227 216 181 189 139 151 228 131 140 164 178 0 342 354 15
350 348 349 348 342 334 320 49 51 295 256 5 87 62 82 62 81 86 37 77 100 165 129 138 84 78 96 130 145 171 211 42 105 78 246 185 219 235 196 172 199 9 31 28 11
359 13 6 0 9 4 349 93 52 240 291 246 86 264 114 108 93 103 121 76 105 359 261 129 110 49 155 149 52 212 131 150 336 179 226 183 242 160 167 173 175 13 15 3 351
12 20 1 1 43 38 37 61 315 257 252 326 99 114 107 126 146 95 68 114 139 90 119 122 90 128 174 188 168 149 185 63 94 321 268 188 131 11 166 171 88 346 349 349 350
13 349 357 10 55 51 48 326 311 280 201 254 66 87 141 118 120 111 115 76 132 160 100 53 101 136 92 39 319 290 199 198 218 169 15 332 100 136 168 178 243 327 346 347 350
341 307 11 38 93 81 59 280 273 318 2 34 115 34 150 124 120 114 108 8 120 93 150 168 137 140 159 184 193 219 197 147 94 71 196 223 120 135 160 219 324 329 332 341 341
347 322 8 58 68 55 117 29 344 344 323 8 102 127 128 100 42 140 126 66 74 88 95 100 101 325 133 92 115 190 190 188 169 181 159 233 82 180 207 308 328 331 332 333 341
16 37 2 334 61 8 237 113 347 340 358 354 119 133 147 133 116 133 126 120 73 94 67 67 104 77 63 82 124 229 203 195 206 188 209 115 230 274 302 314 320 317 319 326 339
24 4 340 291 308 269 217 158 168 160 305 49 194 69 350 170 229 182 156 177 172 162 105 30 108 95 100 173 220 250 232 216 222 229 247 260 283 288 309 329 305 297 301 332 343
27 12 338 305 313 260 53 65 140 172 104 350 139 129 104 70 4 64 133 136 148 171 155 127 140 156 171 342 270 262 230 208 205 211 223 223 234 284 301 319 317 314 347 335 323